This is the latest recevied weather packets stored in our database for station/object W4NRG-1. If no packets are shown the sender has not sent any weather packets the latest 1 day(s).
| Time | Temp. | Humidity | Pressure | Rain* | Wind** | Luminosity | Snow |
|---|---|---|---|---|---|---|---|
| 1778031749 | 23.33° C | 49% | 1013.2 hPa | 0 mm | - | - | - |
| 1778031446 | 23.33° C | 48% | 1013.1 hPa | 0 mm | - | - | - |
| 1778031143 | 23.33° C | 47% | 1013 hPa | 0 mm | - | - | - |
| 1778030234 | 23.33° C | 47% | 1012.9 hPa | 0 mm | - | - | - |
| 1778029930 | 23.33° C | 47% | 1012.9 hPa | 0 mm | - | - | - |
| 1778029629 | 23.33° C | 46% | 1012.6 hPa | 0 mm | - | - | - |
| 1778029326 | 23.33° C | 46% | 1012.7 hPa | 0 mm | - | - | - |
| 1778029023 | 23.89° C | 46% | 1012.7 hPa | 0 mm | - | - | - |
| 1778028719 | 23.89° C | 45% | 1012.8 hPa | 0 mm | - | - | - |
| 1778028415 | 23.89° C | 45% | 1012.6 hPa | 0 mm | - | - | - |
| 1778028113 | 23.89° C | 44% | 1012.5 hPa | 0 mm | - | - | - |
| 1778027809 | 24.44° C | 43% | 1012.6 hPa | 0 mm | - | - | - |
| 1778027201 | 24.44° C | 42% | 1012.5 hPa | 0 mm | - | - | - |
| 1778026898 | 24.44° C | 42% | 1012.3 hPa | 0 mm | - | - | - |
| 1778026593 | 24.44° C | 41% | 1012.4 hPa | 0 mm | - | - | - |
| 1778026291 | 24.44° C | 42% | 1012.3 hPa | 0 mm | - | - | - |
| 1778024474 | 25.56° C | 40% | 1011.9 hPa | 0 mm | - | - | - |
| 1778023264 | 26.11° C | 38% | 1011.7 hPa | 0 mm | - | - | - |
| 1778017810 | 27.78° C | 34% | 1011.7 hPa | 0 mm | - | - | - |
| 1778016295 | 28.89° C | 32% | 1011.5 hPa | 0 mm | - | - | - |
| 1778015385 | 28.89° C | 32% | 1011.3 hPa | 0 mm | - | - | - |
| 1778014478 | 28.33° C | 31% | 1011.4 hPa | 0 mm | - | - | - |
* Rain latest hour (hover to see other rain measurements)
** Current wind speed in m/s (hover to see current wind gust speed)